TimeEST,TemperatureF,Dew PointF,Humidity,Sea Level PressureIn,VisibilityMPH,Wind Direction,Wind SpeedMPH,Gust SpeedMPH,PrecipitationIn,Events,Conditions,WindDirDegrees,DateUTC
12:15 AM,32.0,15.8,51,29.86,10.0,East,4.6,-,N/A,,Overcast,90,2013-02-28 05:15:00
12:55 AM,30.2,17.6,60,29.84,10.0,ENE,5.8,-,N/A,,Overcast,70,2013-02-28 05:55:00
1:15 AM,30.2,17.6,60,29.83,10.0,ENE,4.6,-,N/A,,Overcast,60,2013-02-28 06:15:00
1:35 AM,30.2,17.6,60,29.82,10.0,ENE,6.9,-,N/A,,Overcast,70,2013-02-28 06:35:00
2:15 AM,32.0,15.8,51,29.81,10.0,East,9.2,-,N/A,,Overcast,100,2013-02-28 07:15:00
2:35 AM,32.0,14.0,48,29.80,10.0,East,9.2,-,N/A,,Overcast,90,2013-02-28 07:35:00
2:55 AM,30.2,19.4,64,29.80,10.0,ENE,5.8,-,N/A,,Overcast,60,2013-02-28 07:55:00
3:15 AM,30.2,17.6,60,29.78,10.0,NNE,9.2,-,N/A,,Mostly Cloudy,30,2013-02-28 08:15:00
3:35 AM,30.2,15.8,55,29.78,10.0,NE,9.2,-,N/A,,Overcast,50,2013-02-28 08:35:00
3:55 AM,30.2,15.8,55,29.78,10.0,ENE,8.1,-,N/A,,Overcast,60,2013-02-28 08:55:00
4:15 AM,30.2,15.8,55,29.78,10.0,ENE,6.9,-,N/A,,Overcast,70,2013-02-28 09:15:00
4:35 AM,30.2,15.8,55,29.78,10.0,East,13.8,19.6,N/A,,Overcast,90,2013-02-28 09:35:00
4:55 AM,28.4,17.6,64,29.77,10.0,East,12.7,-,N/A,,Overcast,90,2013-02-28 09:55:00
5:15 AM,28.4,19.4,69,29.78,7.0,East,8.1,18.4,N/A,,Overcast,100,2013-02-28 10:15:00
5:35 AM,26.6,21.2,80,29.77,3.0,East,9.2,-,N/A,,Overcast,80,2013-02-28 10:35:00
5:55 AM,26.6,21.2,80,29.76,3.0,East,12.7,16.1,N/A,,Overcast,90,2013-02-28 10:55:00
6:15 AM,26.6,21.2,80,29.76,1.8,NE,6.9,-,N/A,,Overcast,50,2013-02-28 11:15:00
6:55 AM,26.6,23.0,86,29.75,10.0,NE,8.1,-,N/A,,Overcast,50,2013-02-28 11:55:00
7:35 AM,28.4,24.8,86,29.75,1.8,ENE,6.9,-,N/A,,Overcast,60,2013-02-28 12:35:00
7:55 AM,28.4,24.8,86,29.75,3.0,NE,5.8,-,N/A,,Overcast,40,2013-02-28 12:55:00
8:15 AM,30.2,24.8,80,29.74,10.0,East,6.9,-,N/A,,Overcast,80,2013-02-28 13:15:00
8:35 AM,30.2,24.8,80,29.74,7.0,East,9.2,18.4,N/A,,Overcast,100,2013-02-28 13:35:00
8:55 AM,30.2,24.8,80,29.74,3.0,East,9.2,-,N/A,,Overcast,100,2013-02-28 13:55:00
9:15 AM,30.2,24.8,80,29.73,10.0,East,9.2,16.1,N/A,,Overcast,90,2013-02-28 14:15:00
9:35 AM,30.2,24.8,80,29.74,10.0,East,8.1,-,N/A,,Overcast,90,2013-02-28 14:35:00
9:55 AM,30.2,23.0,75,29.74,10.0,ESE,10.4,-,N/A,,Overcast,110,2013-02-28 14:55:00
10:15 AM,30.2,24.8,80,29.73,10.0,East,8.1,-,N/A,,Overcast,100,2013-02-28 15:15:00
10:35 AM,30.2,24.8,80,29.73,10.0,East,6.9,-,N/A,,Overcast,100,2013-02-28 15:35:00
10:55 AM,30.2,24.8,80,29.73,8.0,East,3.5,-,N/A,,Overcast,90,2013-02-28 15:55:00
11:15 AM,30.2,24.8,80,29.72,6.0,ESE,9.2,-,N/A,,Overcast,110,2013-02-28 16:15:00
11:35 AM,30.2,26.6,86,29.72,1.8,East,4.6,-,0.01,,Overcast,80,2013-02-28 16:35:00
11:55 AM,30.2,26.6,86,29.71,1.5,East,9.2,-,0.01,,Overcast,80,2013-02-28 16:55:00
12:15 PM,30.2,24.8,80,29.71,1.5,East,6.9,-,N/A,,Overcast,80,2013-02-28 17:15:00
12:35 PM,30.2,24.8,80,29.70,7.0,ENE,8.1,-,N/A,,Overcast,70,2013-02-28 17:35:00
1:15 PM,30.2,26.6,86,29.70,1.2,NE,5.8,-,N/A,,Overcast,40,2013-02-28 18:15:00
1:35 PM,30.2,26.6,86,29.69,0.8,ENE,6.9,-,N/A,,Overcast,60,2013-02-28 18:35:00
1:55 PM,30.2,26.6,86,29.69,1.2,ENE,8.1,-,N/A,,Overcast,60,2013-02-28 18:55:00
2:15 PM,30.2,26.6,86,29.69,0.8,NE,10.4,-,N/A,,Overcast,50,2013-02-28 19:15:00
2:35 PM,30.2,26.6,86,29.69,0.5,NE,9.2,-,N/A,,Overcast,50,2013-02-28 19:35:00
2:55 PM,30.2,26.6,86,29.69,0.8,ENE,9.2,-,N/A,,Overcast,60,2013-02-28 19:55:00
3:15 PM,30.2,26.6,86,29.68,2.5,ENE,9.2,-,N/A,,Overcast,60,2013-02-28 20:15:00
3:35 PM,30.2,26.6,86,29.67,1.5,NE,8.1,-,N/A,,Overcast,50,2013-02-28 20:35:00
3:55 PM,30.2,26.6,86,29.67,0.8,NE,9.2,-,N/A,,Overcast,50,2013-02-28 20:55:00
4:15 PM,30.2,26.6,86,29.66,0.5,NE,9.2,-,N/A,,Overcast,40,2013-02-28 21:15:00
4:35 PM,30.2,26.6,86,29.65,1.2,NE,8.1,-,N/A,,Overcast,40,2013-02-28 21:35:00
4:55 PM,30.2,26.6,86,29.65,0.5,NE,10.4,-,N/A,,Overcast,40,2013-02-28 21:55:00
5:15 PM,30.2,26.6,86,29.65,0.2,NE,11.5,-,N/A,,Overcast,50,2013-02-28 22:15:00
5:35 PM,30.2,26.6,86,29.65,0.5,NE,10.4,-,N/A,,Overcast,40,2013-02-28 22:35:00
5:55 PM,30.2,28.4,93,29.65,0.5,NE,9.2,-,N/A,,Overcast,40,2013-02-28 22:55:00
6:15 PM,30.2,26.6,86,29.65,0.5,NE,6.9,-,N/A,,Overcast,40,2013-02-28 23:15:00
6:35 PM,30.2,26.6,86,29.65,0.5,NE,6.9,-,N/A,,Overcast,40,2013-02-28 23:35:00
6:55 PM,30.2,26.6,86,29.65,0.8,NNE,8.1,-,N/A,,Overcast,30,2013-02-28 23:55:00
7:15 PM,30.2,26.6,86,29.65,0.5,NNE,8.1,-,N/A,,Overcast,30,2013-03-01 00:15:00
7:35 PM,28.4,26.6,93,29.65,0.8,NE,11.5,-,N/A,,Overcast,50,2013-03-01 00:35:00
7:55 PM,28.4,26.6,93,29.65,0.5,NE,16.1,24.2,0.02,,Overcast,50,2013-03-01 00:55:00
8:15 PM,28.4,26.6,93,29.65,0.5,NE,17.3,-,0.01,,Overcast,50,2013-03-01 01:15:00
8:35 PM,28.4,26.6,93,29.65,0.5,ENE,16.1,-,0.02,,Overcast,60,2013-03-01 01:35:00
8:55 PM,28.4,24.8,86,29.64,0.5,ENE,19.6,-,0.02,,Overcast,60,2013-03-01 01:55:00
9:15 PM,28.4,24.8,86,29.63,0.8,NE,13.8,-,N/A,,Overcast,50,2013-03-01 02:15:00
9:35 PM,28.4,24.8,86,29.63,2.5,NE,15.0,-,N/A,,Overcast,40,2013-03-01 02:35:00
9:55 PM,28.4,24.8,86,29.62,1.0,NE,11.5,16.1,N/A,,Overcast,40,2013-03-01 02:55:00
10:15 PM,28.4,24.8,86,29.62,0.8,NE,13.8,-,N/A,,Overcast,40,2013-03-01 03:15:00
10:35 PM,28.4,24.8,86,29.61,2.0,NE,12.7,-,N/A,,Overcast,40,2013-03-01 03:35:00
10:55 PM,28.4,24.8,86,29.61,2.0,NE,12.7,-,N/A,,Overcast,40,2013-03-01 03:55:00
11:15 PM,28.4,24.8,86,29.60,2.0,NE,12.7,-,N/A,,Overcast,40,2013-03-01 04:15:00
11:35 PM,28.4,24.8,86,29.60,2.5,NE,10.4,-,N/A,,Overcast,50,2013-03-01 04:35:00
11:55 PM,28.4,24.8,86,29.60,5.0,NE,11.5,-,N/A,,Overcast,40,2013-03-01 04:55:00